OBJECT B, 68130

Orbit data source: Space-Track

You're viewing an Uncataloged Satellite

Recently launched and/or uncataloged satellites may have evolving metadata. Metadata may include but not limited to: Owner, Maufacturer, Bus, Motor, and Mission.

OBJECT B, 68130 is a Chinese satellite in LEO that was launched on Thu, 12 Mar 2026 UTC via a CHANG ZHENG 8A launch vehicle from the Wenchang Satellite Launch Center (WSC). Unknown objects in Earth's orbit typically refer to objects detected orbiting the Earth but have not yet been identified or cataloged. These objects could be anything from previously untracked satellites, spent rocket stages, debris from satellite collisions, or even natural meteoroids temporarily captured by Earth's gravity.

Loading next visibility...
Identifier
68130, 2026-047B
Orbit
LEO
Country
Flag of CNCN / PRC
Related business
None
Manufacturer
Unknown
Mission
Operational spacecraft
Bus & Motor
Unknown
Mass
Unknown
Launch date (UTC)
2026-03-12 (3 days ago)
Launch vehicle
CHANG ZHENG 8A
Launch site
Wenchang Satellite Launch Center (WSC)
Object type
Unknown
Shape & HBR
Unknown
Radar Cross Section
RCS unknown

Expand to show TLE details & history
Last TLE update: 6 hours ago

TLE from 6 hours ago
0 OBJECT B
1 68130U 26047B   26073.57662943 -.00000138  00000-0  86988-5 0  9994
2 68130  50.0038  50.5609 0007758 264.6066  95.3954 14.06063675   247
Epoch: 2026-03-14T13:50Z
TLE epoch observation values (Epoch: 2026-03-14T13:50:20.782Z)
Latitude
-0.00006°
Longitude
30.77844°
Altitude
873.932 km
Speed
7.416 km/s
True Right ascension
03h 22m 14s
True Declination
0° 00' 00"
Sunlit
Object was in daylight at epoch
Visualization orbit readout
Latitude
Unknown
Longitude
Unknown
Altitude
Unknown
Speed
Unknown
Apparent Right ascension
Unknown
Apparent Declination
Unknown
Sunlit
N/A
Visualization observer readout
Local Sidereal Time
00:02:10
Azimuth
Unknown
Elevation
Unknown
Doppler factor
Unknown
Orbital elements
Apogee altitude
879.23 km
Perigee altitude
867.979 km
Semi-major axis
7,251.742 km
Eccentricity
0.00078
Inclination
50.0038°
RAAN
50.5609°
Arg. of periapsis
264.6066°
True anomaly
95.4839°
Mean anomaly
95.3954°
Eccentric anomaly
95.43965°
Mean motion
3.51463 °/min
Orbital period
102.43 mins
BSTAR
0.0000086988
Loading maneuver chart data...
Computing Atmospheric mass density...
Loading historical data...
Loading historical data...
Loading historical data...
Loading historical data...
Loading historical data...
Loading historical data...
Loading historical data...

Documentation

Showing up to 5 results
|